Погода в Тунгокочене

Погода в Тунгокочене : погода сейчас, прогноз погоды и архив. Всё, что Вы хотите узнать о погоде в Тунгокочене!

Хотите узнать прогноз погоды в Тунгокочене? Тогда Вам сюда: Погода в Тунгокочене

Поиск расширенной информации на нашем сайте:

Другие новости

Новости СМИ2

Главная страница сайта

Новости сайта

03.07.2017

Напоминаем, что на нашем специализированном сайте Метеоцентр.Азия вы можете получить высокодетализированные автоматические прогнозы погоды по пунктам России, СНГ и мира в авиационном формате (включающие направление и скорость ветра, видимость, явления погоды, количество и форму облачности, нижнюю и верхнюю границу облачности).

Рекомендуем: Как выбрать полотенцесушитель.

Погода в Тунгокочене - сегодня

Время (UTC), дата Ветер
(°,м/с) 
Видим.   Явления Облачность Т
(°С)
Тd
(°С)
f(%) Тe
(°С)
Pmin
(гПа)
dP
(гПа)
Po
(мм)
O2
(г/м3)
Тmin Tmax R s Состояние
почвы
18 20.08.17 340 (С) 4000 м  слаб. дождь  10/8 600 м средняя 
[Frnb|As op]
+10 +9.6 97 +14  991.5  -2.4  675  261           
21 20.08.17 050 (СВ) 4000 м  слаб. дождь  10/4 600 м средняя 
[Frnb|As op]
+11.2 +10.8 97 +11  989.5  -1.5             
00 21.08.17 160 (Ю) 5{10}  20000 м  {дождь}  9/9 600 м кучево-дожд. 
[Cb cap]
+12.9 +9.6 80 +12  989.6  0.6    +10    25    мокрая 
03 21.08.17 140 (ЮВ) 2{10}  20000 м    9/9 1000 м кучево-дожд. 
[Cb cap]
+13.6 +9.5 76 +14  989.7  0.2             
06 21.08.17 190 (Ю) 20000 м  в посл. час дождь  10/3 1000 м средняя 
[Sc|As trans]
+13 +10.9 87 +18  990.3  0.5  675  257           
09 21.08.17 210 (ЮЗ) 4000 м  слаб. дождь  10/0 средняя 
[As op]
+11.5 +10.1 91 +13  992.1  1.1  676  259           
12 21.08.17 210 (ЮЗ) 20000 м  в посл. час дождь  10/8 600 м средняя 
[Sc|As op]
+10 +8.4 90 +10  994.5  1.7  677  262    +14     
15 21.08.17 260 (З) 20000 м    10/5 1000 м средняя 
[Sc|As op]
+10.8 +6.8 76 +10  995.1  0.8  678  261           
18 21.08.17 260 (З) 10 км  слаб. дождь  10/0 средняя 
[As op]
+10.7 +7.6 81 +10  996.4  1.2  679  262           
21 21.08.17 230 (ЮЗ) 20000 м  дым{дождь}  10/5 600 м кучево-дожд., средняя 
[Cb cap|As op]
+10 +7.5 84 +10  998.8  1.9  680  263           
00 22.08.17 260 (З) 20000 м  дым{дождь}  10/3 1000 м средняя 
[Sc|As trans]
+11.4 +6.3 71 +11  1000.4  1.9  682  262  +9.4    0.6    влажная 
03 22.08.17 240 (ЮЗ) 4{10}  20000 м  дым  10/0 средняя 
[Ac lent]
+14.2 +5.6 56 +14  1001  1.3  683  260           
06 22.08.17 300 (СЗ) 20000 м    9/3 1000 м кучево-дожд., средняя 
[Cb cap|Ac lent]
+17 +5.4 46 +17  1001.5  1.3  683  258           
09 22.08.17 270 (З) 20000 м    9/3 1000 м кучево-дожд., средняя 
[Cb cap|Ac lent]
+17.4 +4.9 44 +18  1002.5  1.1  684  258           
12 22.08.17 210 (ЮЗ) 20000 м    10/10 1000 м 
[Sc diur, vesp]
+14.1 +5.9 58 +14  1005  1.2  685  261    +18.2       
15 22.08.17 тихо ()   20000 м    10/10 1000 м 
[Sc]
+12.1 +8.7 80 +13  1007.5  1.8  687  263           
18 22.08.17 тихо ()   20000 м    9/9 1000 м 
[Sc]
+9 +7.5 90 +9  1009.4  0.7  687  267           
21 22.08.17 тихо ()   20000 м    10/10 1000 м 
[Sc]
+9.1 +7.4 89 +9  1009  -0.4  687  266           
00 23.08.17 тихо ()   20000 м    10/3 1000 м средняя 
[Sc|As trans]
+9.5 +7.8 89 +10  1008.8  687  266  +8.5        влажная 
03 23.08.17 050 (СВ) 10 км  слаб. дождь  10/3 1000 м средняя 
[Sc|As op]
+10.4 +7.9 84 +12  1007.9  -0.5  686  265           
06 23.08.17 040 (СВ) 10 км  слаб. дождь  10/6 600 м средняя 
[Frnb|As op]
+10.8 +8.8 87 +12  1006.3  -1.4  685  264           
09 23.08.17 360 (С) 10 км  слаб. ливневой дождь  10/8 600 м кучево-дожд., средняя 
[Cb cap|As op]
+10 +9 93 +11  1005.6  -0.8  685  264           
12 23.08.17 340 (С) 10 км  слаб. ливневой дождь  10/8 600 м кучево-дожд., средняя 
[Cb cap|As op]
+9.2 +8.6 96 +10  1005.8  -0.1  685  265    +11.5  16     
15 23.08.17 330 (СЗ) 4000 м  слаб. дождь{ливн. осадки}  10/8 600 м средняя 
[Frnb|As op]
+8.7 +7 89 +8  1005.7  -0.3  684  266           
18 23.08.17 330 (СЗ) 2000 м  дождь{ливн. осадки}  10/8 600 м средняя 
[Frnb|As op]
+9 +7.5 90 +8  1004.7  -0.8  684  265           
Время (UTC), дата Ветер
(°,м/с) 
Видим.   Явления Облачность Т
(°С)
Тd
(°С)
f(%) Тe
(°С)
Pmin
(гПа)
dP
(гПа)
Po
(мм)
O2
(г/м3)
Тmin Tmax R s Состояние
почвы

Для получения пояснительной информации подведите курсор к названию столбца.

ПОГОДА в Тунгокочене - архив

Всё, что Вы хотите узнать о погоде в Тунгокочене - удобно и подробно!

Выберите нужную дату (начиная с 1 января 2015* года) и нажмите кнопку "Найти".
Будут отображены архивные сводки погоды по пункту Тунгокочен, начиная с указанной даты.


Отображать данные в формате CSV (для использования в таблицах Excel)


Внимание! Наш архив погоды предназначен исключительно для личного некоммерческого использования в познавательных целях. Если Вам необходимы официальные справки о состоянии погоды (для производственных, юридических, коммерческих и т.п. целей), обращайтесь в органы Росгидромета.

*Примечание: данная дата относится к архиву по метеостанциям СССР (Россия, СНГ, Балтия).
Архив по метеостанциям Зарубежной Европы и Азии (кроме Китая) хранится 10 дней, по другим регионам земного шара (Китай, Африка, Америка, Австралия, Океания) - 1 день.

Тунгокочен - район местоположения метеостанции


Название, широта, долгота, высота метеостанции:
Тунгокочен 53.5°ш. 115.6°д. 811 м над ур. моря [Российская Федерация]

Дополнительная информация

В oтличие oт бoльшинства пoгoдных сайтoв мы публикуем пoдрoбную метеoинфoрмацию в детальнoм прoфессиoнальнoм фoрмате.

Характеристики температуры и влажнoсти вoздуха измеряются на высoте 2 м в тени вдали oт зданий и деревьев.
Скoрoсть ветра измеряется на высoте 10 м (на урoвне рoста челoвека скoрoсть ветра ниже в 1.5-2 раза). Если метеoстанция нахoдится в гoрoде или в лесу, тo скoрoсть ветра занижена на 2-4 м/с пo сравнению с oткрытым местoм. Скoрoсть ветра над акватoриями крупных рек и oзёр, а также на вершинах хoлмoв на 2-5 м/с выше, чем в oбычных услoвиях.
Атмoсфернoе давление в разных тoчках местнoсти мoжет значительнo oтличаться oт давления на метеoстанции, в зависимoсти oт услoвий рельефа (при пoдъёме на 10 м давление пoнижается примернo на 1 мм рт.ст.).